{"data":{"norad_id":65482,"epoch":"2026-09-19T21:45:42.892416Z","epoch_age_seconds":163133,"freshness":"FRESH","line1":"1 65482U 25195AA  26262.90674644  .00016250  00000+0  49080-3 0  9992","line2":"2 65482  53.1576  72.1733 0001036  80.8880 279.2240 15.34415091 59765","mean_motion":15.34415091,"eccentricity":0.0001036,"inclination_deg":53.1576,"raan_deg":72.1733,"arg_perigee_deg":80.888,"mean_anomaly_deg":279.224,"bstar":0.0004908,"rev_number":5976,"period_min":93.846835086947,"perigee_km":461.94968054035,"apogee_km":463.36709334452,"semimajor_km":6840.7953869424,"source":"CELESTRAK","updated_at":"2026-09-21T09:00:35.640065Z"}}